Time,TemperatureF,DewpointF,PressureIn,WindDirection,WindDirectionDegrees,WindSpeedMPH,WindSpeedGustMPH,Humidity,HourlyPrecipIn,Conditions,Clouds,dailyrainin,SoftwareType,DateUTC
2013-04-08 00:05:00,65.2,58.5,29.77,SSE,154,4.0,10.0,79,0.00,,,0.00,Weather View 32 v70,2013-04-08 05:05:00,
2013-04-08 00:10:00,65.2,58.5,29.77,SSE,152,0.0,10.0,79,0.00,,,0.00,Weather View 32 v70,2013-04-08 05:10:00,
2013-04-08 00:15:00,65.1,58.4,29.77,SSE,160,0.0,10.0,79,0.00,,,0.00,Weather View 32 v70,2013-04-08 05:15:00,
2013-04-08 00:20:00,65.0,58.3,29.77,SSE,159,3.0,10.0,79,0.00,,,0.00,Weather View 32 v70,2013-04-08 05:20:00,
2013-04-08 00:30:00,65.0,58.3,29.77,SSE,153,0.0,10.0,79,0.00,,,0.00,Weather View 32 v70,2013-04-08 05:30:00,
2013-04-08 00:35:00,65.0,58.3,29.77,SSE,163,0.0,10.0,79,0.00,,,0.00,Weather View 32 v70,2013-04-08 05:35:00,
2013-04-08 00:40:00,65.0,58.3,29.76,SSE,163,6.0,10.0,79,0.00,,,0.00,Weather View 32 v70,2013-04-08 05:40:00,
2013-04-08 00:45:00,65.0,58.3,29.76,SE,137,0.0,10.0,79,0.00,,,0.00,Weather View 32 v70,2013-04-08 05:45:00,
2013-04-08 00:55:00,65.0,58.3,29.76,SSE,148,0.0,10.0,79,0.00,,,0.00,Weather View 32 v70,2013-04-08 05:55:00,
2013-04-08 01:00:00,65.1,58.4,29.76,SSE,151,4.0,10.0,79,0.00,,,0.00,Weather View 32 v70,2013-04-08 06:00:00,
2013-04-08 01:10:00,65.3,58.6,29.76,SSE,149,0.0,10.0,79,0.00,,,0.00,Weather View 32 v70,2013-04-08 06:10:00,
2013-04-08 01:15:00,65.4,58.3,29.76,SSE,154,6.0,10.0,78,0.00,,,0.00,Weather View 32 v70,2013-04-08 06:15:00,
2013-04-08 01:25:00,65.5,58.4,29.76,SSE,164,0.0,10.0,78,0.00,,,0.00,Weather View 32 v70,2013-04-08 06:25:00,
2013-04-08 01:30:00,65.6,58.5,29.76,SSE,161,0.0,10.0,78,0.00,,,0.00,Weather View 32 v70,2013-04-08 06:30:00,
2013-04-08 01:35:00,65.6,58.5,29.76,SSE,154,4.0,10.0,78,0.00,,,0.00,Weather View 32 v70,2013-04-08 06:35:00,
2013-04-08 01:45:00,65.7,58.6,29.75,South,175,0.0,10.0,78,0.00,,,0.00,Weather View 32 v70,2013-04-08 06:45:00,
2013-04-08 01:50:00,65.7,58.6,29.74,SSE,147,3.0,12.0,78,0.00,,,0.00,Weather View 32 v70,2013-04-08 06:50:00,
2013-04-08 02:00:00,65.8,58.7,29.73,SSE,150,4.0,12.0,78,0.00,,,0.00,Weather View 32 v70,2013-04-08 07:00:00,
2013-04-08 02:10:00,65.9,58.5,29.72,SE,131,6.0,15.0,77,0.00,,,0.00,Weather View 32 v70,2013-04-08 07:10:00,
2013-04-08 02:15:00,65.9,58.5,29.72,SE,141,4.0,15.0,77,0.00,,,0.00,Weather View 32 v70,2013-04-08 07:15:00,
2013-04-08 02:20:00,65.8,58.4,29.72,SSE,153,2.0,15.0,77,0.00,,,0.00,Weather View 32 v70,2013-04-08 07:20:00,
2013-04-08 02:26:00,65.8,58.7,29.72,SE,145,10.0,15.0,78,0.00,,,0.00,Weather View 32 v70,2013-04-08 07:26:00,
2013-04-08 02:35:00,65.7,58.6,29.72,SE,143,2.0,15.0,78,0.00,,,0.00,Weather View 32 v70,2013-04-08 07:35:00,
2013-04-08 02:41:00,65.7,58.6,29.72,SSE,149,8.0,15.0,78,0.00,,,0.00,Weather View 32 v70,2013-04-08 07:41:00,
2013-04-08 02:50:00,65.7,58.6,29.71,SE,140,3.0,15.0,78,0.00,,,0.00,Weather View 32 v70,2013-04-08 07:50:00,
2013-04-08 03:00:00,65.7,58.6,29.71,SE,134,0.0,15.0,78,0.00,,,0.00,Weather View 32 v70,2013-04-08 08:00:00,
2013-04-08 03:10:00,65.6,58.5,29.71,SE,125,5.0,14.0,78,0.00,,,0.00,Weather View 32 v70,2013-04-08 08:10:00,
2013-04-08 03:20:00,65.6,58.5,29.71,SE,140,0.0,14.0,78,0.00,,,0.00,Weather View 32 v70,2013-04-08 08:20:00,
2013-04-08 03:25:00,65.6,58.5,29.71,SE,137,0.0,14.0,78,0.00,,,0.00,Weather View 32 v70,2013-04-08 08:25:00,
2013-04-08 03:31:00,65.7,58.6,29.71,SE,133,6.0,14.0,78,0.00,,,0.00,Weather View 32 v70,2013-04-08 08:31:00,
2013-04-08 03:40:00,65.8,58.4,29.71,SE,143,0.0,14.0,77,0.00,,,0.00,Weather View 32 v70,2013-04-08 08:40:00,
2013-04-08 03:45:00,65.8,58.4,29.70,SE,130,0.0,14.0,77,0.00,,,0.00,Weather View 32 v70,2013-04-08 08:45:00,
2013-04-08 03:55:00,65.9,58.5,29.71,SE,145,0.0,14.0,77,0.00,,,0.00,Weather View 32 v70,2013-04-08 08:55:00,
2013-04-08 04:00:00,65.9,58.5,29.71,SE,137,0.0,11.0,77,0.00,,,0.00,Weather View 32 v70,2013-04-08 09:00:00,
2013-04-08 04:10:00,65.9,58.5,29.71,SSE,150,0.0,11.0,77,0.00,,,0.00,Weather View 32 v70,2013-04-08 09:10:00,
2013-04-08 04:15:00,65.9,58.5,29.71,SE,135,0.0,11.0,77,0.00,,,0.00,Weather View 32 v70,2013-04-08 09:15:00,
2013-04-08 04:25:00,65.9,58.5,29.70,SE,137,0.0,10.0,77,0.00,,,0.00,Weather View 32 v70,2013-04-08 09:25:00,
2013-04-08 04:30:00,65.9,58.8,29.70,SSE,154,4.0,10.0,78,0.00,,,0.00,Weather View 32 v70,2013-04-08 09:30:00,
2013-04-08 04:35:00,65.9,58.8,29.70,SE,142,0.0,10.0,78,0.00,,,0.00,Weather View 32 v70,2013-04-08 09:35:00,
2013-04-08 04:45:00,65.9,58.8,29.70,SE,131,2.0,10.0,78,0.00,,,0.00,Weather View 32 v70,2013-04-08 09:45:00,
2013-04-08 04:50:00,65.9,58.8,29.70,SE,131,0.0,10.0,78,0.00,,,0.00,Weather View 32 v70,2013-04-08 09:50:00,
2013-04-08 04:56:00,65.9,58.8,29.70,SE,133,0.0,10.0,78,0.00,,,0.00,Weather View 32 v70,2013-04-08 09:56:00,
2013-04-08 05:05:00,66.0,58.9,29.70,SE,141,1.0,9.0,78,0.00,,,0.00,Weather View 32 v70,2013-04-08 10:05:00,
2013-04-08 05:15:00,66.1,59.0,29.70,SSE,147,2.0,9.0,78,0.00,,,0.00,Weather View 32 v70,2013-04-08 10:15:00,
2013-04-08 05:25:00,66.6,59.5,29.70,SSE,156,0.0,10.0,78,0.00,,,0.00,Weather View 32 v70,2013-04-08 10:25:00,
2013-04-08 05:30:00,66.9,59.4,29.70,South,170,8.0,10.0,77,0.00,,,0.00,Weather View 32 v70,2013-04-08 10:30:00,
2013-04-08 05:40:00,67.4,59.5,29.71,SE,145,0.0,17.0,76,0.00,,,0.00,Weather View 32 v70,2013-04-08 10:40:00,
2013-04-08 05:45:00,67.4,59.5,29.71,SE,144,0.0,17.0,76,0.00,,,0.00,Weather View 32 v70,2013-04-08 10:45:00,
2013-04-08 05:50:00,67.4,59.5,29.71,South,173,7.0,17.0,76,0.00,,,0.00,Weather View 32 v70,2013-04-08 10:50:00,
2013-04-08 06:00:00,67.2,59.4,29.71,SSE,156,5.0,17.0,76,0.00,,,0.00,Weather View 32 v70,2013-04-08 11:00:00,
2013-04-08 06:10:00,67.1,59.6,29.72,SE,142,0.0,17.0,77,0.00,,,0.00,Weather View 32 v70,2013-04-08 11:10:00,
2013-04-08 06:15:00,67.0,59.5,29.71,SSE,152,6.0,17.0,77,0.00,,,0.00,Weather View 32 v70,2013-04-08 11:15:00,
2013-04-08 06:20:00,67.0,59.5,29.71,SSE,154,4.0,17.0,77,0.00,,,0.00,Weather View 32 v70,2013-04-08 11:20:00,
2013-04-08 06:28:00,66.9,59.4,29.72,South,170,6.0,17.0,77,0.00,,,0.00,Weather View 32 v70,2013-04-08 11:28:00,
2013-04-08 06:35:00,66.7,59.2,29.72,SSE,148,0.0,13.0,77,0.00,,,0.00,Weather View 32 v70,2013-04-08 11:35:00,
2013-04-08 06:40:00,66.6,59.5,29.72,SE,142,6.0,13.0,78,0.00,,,0.00,Weather View 32 v70,2013-04-08 11:40:00,
2013-04-08 06:50:00,66.5,59.4,29.73,SSE,154,2.0,12.0,78,0.00,,,0.00,Weather View 32 v70,2013-04-08 11:50:00,
2013-04-08 06:55:00,66.4,59.3,29.73,SE,141,0.0,12.0,78,0.00,,,0.00,Weather View 32 v70,2013-04-08 11:55:00,
2013-04-08 07:00:00,66.3,59.2,29.73,SE,129,0.0,12.0,78,0.00,,,0.00,Weather View 32 v70,2013-04-08 12:00:00,
2013-04-08 07:10:00,66.1,59.4,29.73,SE,129,4.0,13.0,79,0.00,,,0.00,Weather View 32 v70,2013-04-08 12:10:00,
2013-04-08 07:15:00,66.1,59.4,29.74,SE,133,0.0,13.0,79,0.00,,,0.00,Weather View 32 v70,2013-04-08 12:15:00,
2013-04-08 07:20:00,66.0,59.3,29.74,SSE,147,0.0,13.0,79,0.00,,,0.00,Weather View 32 v70,2013-04-08 12:20:00,
2013-04-08 07:25:00,66.0,59.3,29.74,ESE,122,8.0,13.0,79,0.00,,,0.00,Weather View 32 v70,2013-04-08 12:25:00,
2013-04-08 07:35:00,65.9,59.2,29.74,SE,131,7.0,13.0,79,0.00,,,0.00,Weather View 32 v70,2013-04-08 12:35:00,
2013-04-08 07:41:00,65.9,59.2,29.74,SSE,152,4.0,13.0,79,0.00,,,0.00,Weather View 32 v70,2013-04-08 12:41:00,
2013-04-08 07:50:00,65.8,59.1,29.74,SE,141,3.0,14.0,79,0.00,,,0.00,Weather View 32 v70,2013-04-08 12:50:00,
2013-04-08 08:00:00,65.8,59.1,29.74,SSE,158,7.0,14.0,79,0.00,,,0.00,Weather View 32 v70,2013-04-08 13:00:00,
2013-04-08 08:05:00,65.8,59.1,29.75,SSE,153,4.0,14.0,79,0.00,,,0.00,Weather View 32 v70,2013-04-08 13:05:00,
2013-04-08 08:10:00,65.8,59.1,29.75,SE,145,7.0,14.0,79,0.00,,,0.00,Weather View 32 v70,2013-04-08 13:10:00,
2013-04-08 08:15:00,65.7,59.0,29.75,SSE,154,4.0,14.0,79,0.00,,,0.00,Weather View 32 v70,2013-04-08 13:15:00,
2013-04-08 08:25:00,65.7,59.0,29.75,SE,130,3.0,14.0,79,0.00,,,0.00,Weather View 32 v70,2013-04-08 13:25:00,
2013-04-08 08:30:00,65.6,58.9,29.75,SE,129,4.0,14.0,79,0.00,,,0.00,Weather View 32 v70,2013-04-08 13:30:00,
2013-04-08 08:40:00,65.6,58.9,29.75,SSE,150,10.0,16.0,79,0.00,,,0.00,Weather View 32 v70,2013-04-08 13:40:00,
2013-04-08 08:45:00,65.6,58.9,29.75,SE,142,0.0,16.0,79,0.00,,,0.00,Weather View 32 v70,2013-04-08 13:45:00,
2013-04-08 08:50:00,65.6,59.2,29.74,SE,131,5.0,16.0,80,0.00,,,0.00,Weather View 32 v70,2013-04-08 13:50:00,
2013-04-08 09:00:00,65.4,59.0,29.75,SE,127,6.0,16.0,80,0.00,,,0.00,Weather View 32 v70,2013-04-08 14:00:00,
2013-04-08 09:05:00,65.4,59.0,29.75,SE,129,6.0,16.0,80,0.00,,,0.00,Weather View 32 v70,2013-04-08 14:05:00,
2013-04-08 09:15:00,65.2,58.9,29.76,SE,135,5.0,16.0,80,0.00,,,0.00,Weather View 32 v70,2013-04-08 14:15:00,
2013-04-08 09:25:00,64.9,58.9,29.76,SE,137,10.0,16.0,81,0.00,,,0.00,Weather View 32 v70,2013-04-08 14:25:00,
2013-04-08 09:31:00,64.8,59.2,29.76,SSE,154,4.0,16.0,82,0.00,,,0.00,Weather View 32 v70,2013-04-08 14:31:00,
2013-04-08 09:40:00,64.6,59.3,29.76,SE,127,6.0,16.0,83,0.00,,,0.00,Weather View 32 v70,2013-04-08 14:40:00,
2013-04-08 09:45:00,64.5,59.2,29.76,SSE,161,9.0,16.0,83,0.00,,,0.00,Weather View 32 v70,2013-04-08 14:45:00,
2013-04-08 09:55:00,64.4,59.4,29.77,SE,134,8.0,16.0,84,0.00,,,0.00,Weather View 32 v70,2013-04-08 14:55:00,
2013-04-08 10:05:00,64.0,59.4,29.77,SE,134,6.0,16.0,85,0.00,,,0.00,Weather View 32 v70,2013-04-08 15:05:00,
2013-04-08 10:10:00,63.8,59.5,29.77,SE,127,6.0,16.0,86,0.00,,,0.00,Weather View 32 v70,2013-04-08 15:10:00,
2013-04-08 10:20:00,63.5,59.9,29.78,SE,130,6.0,16.0,88,0.00,,,0.00,Weather View 32 v70,2013-04-08 15:20:00,
2013-04-08 10:25:00,63.4,59.8,29.78,SSE,159,6.0,16.0,88,0.00,,,0.00,Weather View 32 v70,2013-04-08 15:25:00,
2013-04-08 10:31:00,63.4,59.8,29.78,SSE,159,6.0,16.0,88,0.00,,,0.00,Weather View 32 v70,2013-04-08 15:31:00,
2013-04-08 10:40:00,63.2,59.9,29.78,SSE,147,0.0,16.0,89,0.00,,,0.00,Weather View 32 v70,2013-04-08 15:40:00,
2013-04-08 10:45:00,63.2,59.9,29.78,SE,141,9.0,16.0,89,0.00,,,0.00,Weather View 32 v70,2013-04-08 15:45:00,
2013-04-08 10:55:00,63.1,60.1,29.78,SSE,156,8.0,16.0,90,0.00,,,0.00,Weather View 32 v70,2013-04-08 15:55:00,
2013-04-08 11:05:00,63.2,60.2,29.78,SE,127,6.0,15.0,90,0.00,,,0.00,Weather View 32 v70,2013-04-08 16:05:00,
2013-04-08 11:10:00,63.1,60.4,29.78,SE,139,2.0,15.0,91,0.00,,,0.00,Weather View 32 v70,2013-04-08 16:10:00,
2013-04-08 11:15:00,63.1,60.4,29.78,SE,130,10.0,15.0,91,0.00,,,0.00,Weather View 32 v70,2013-04-08 16:15:00,
2013-04-08 11:25:00,63.1,60.4,29.78,SSE,149,10.0,14.0,91,0.00,,,0.00,Weather View 32 v70,2013-04-08 16:25:00,
2013-04-08 11:32:00,63.2,60.5,29.78,SE,133,8.0,14.0,91,0.00,,,0.00,Weather View 32 v70,2013-04-08 16:32:00,
2013-04-08 11:40:00,63.3,60.6,29.77,SE,141,11.0,14.0,91,0.00,,,0.00,Weather View 32 v70,2013-04-08 16:40:00,
2013-04-08 11:50:00,63.6,60.6,29.77,SE,139,4.0,14.0,90,0.00,,,0.00,Weather View 32 v70,2013-04-08 16:50:00,
2013-04-08 12:00:00,63.8,60.8,29.76,SSE,158,5.0,13.0,90,0.00,,,0.00,Weather View 32 v70,2013-04-08 17:00:00,
2013-04-08 12:10:00,63.9,60.9,29.76,SE,128,12.0,14.0,90,0.00,,,0.00,Weather View 32 v70,2013-04-08 17:10:00,
2013-04-08 12:20:00,64.0,60.7,29.76,South,171,8.0,15.0,89,0.00,,,0.00,Weather View 32 v70,2013-04-08 17:20:00,
2013-04-08 12:30:00,64.2,60.9,29.76,SSE,157,0.0,15.0,89,0.00,,,0.00,Weather View 32 v70,2013-04-08 17:30:00,
2013-04-08 12:40:00,64.4,60.8,29.76,SSE,162,6.0,15.0,88,0.00,,,0.00,Weather View 32 v70,2013-04-08 17:40:00,
2013-04-08 12:50:00,64.8,61.2,29.75,SE,132,10.0,15.0,88,0.00,,,0.00,Weather View 32 v70,2013-04-08 17:50:00,
2013-04-08 13:00:00,65.2,60.9,29.74,SE,139,10.0,16.0,86,0.00,,,0.00,Weather View 32 v70,2013-04-08 18:00:00,
2013-04-08 13:05:00,65.4,61.1,29.74,SE,132,7.0,16.0,86,0.00,,,0.00,Weather View 32 v70,2013-04-08 18:05:00,
2013-04-08 13:15:00,65.5,61.2,29.74,ESE,122,7.0,16.0,86,0.00,,,0.00,Weather View 32 v70,2013-04-08 18:15:00,
2013-04-08 13:20:00,65.6,61.3,29.74,SE,125,13.0,16.0,86,0.00,,,0.00,Weather View 32 v70,2013-04-08 18:20:00,
2013-04-08 13:30:00,65.8,61.1,29.73,SSE,166,5.0,19.0,85,0.00,,,0.00,Weather View 32 v70,2013-04-08 18:30:00,
2013-04-08 13:35:00,66.1,61.4,29.73,SSE,152,6.0,19.0,85,0.00,,,0.00,Weather View 32 v70,2013-04-08 18:35:00,
2013-04-08 13:45:00,66.6,61.3,29.73,SSE,147,10.0,20.0,83,0.00,,,0.00,Weather View 32 v70,2013-04-08 18:45:00,
2013-04-08 13:55:00,67.3,61.6,29.72,SE,125,10.0,20.0,82,0.00,,,0.00,Weather View 32 v70,2013-04-08 18:55:00,
2013-04-08 14:00:00,67.6,61.5,29.72,SSE,157,5.0,20.0,81,0.00,,,0.00,Weather View 32 v70,2013-04-08 19:00:00,
2013-04-08 14:06:00,68.0,61.6,29.72,SSE,167,5.0,20.0,80,0.00,,,0.00,Weather View 32 v70,2013-04-08 19:06:00,
2013-04-08 14:15:00,69.0,61.8,29.71,SSE,166,13.0,20.0,78,0.00,,,0.00,Weather View 32 v70,2013-04-08 19:15:00,
2013-04-08 14:20:00,69.3,62.1,29.71,South,187,3.0,20.0,78,0.00,,,0.00,Weather View 32 v70,2013-04-08 19:20:00,
2013-04-08 14:30:00,70.2,61.9,29.71,SSE,166,6.0,20.0,75,0.00,,,0.00,Weather View 32 v70,2013-04-08 19:30:00,
2013-04-08 14:35:00,70.4,61.7,29.71,South,172,7.0,20.0,74,0.00,,,0.00,Weather View 32 v70,2013-04-08 19:35:00,
2013-04-08 14:40:00,70.6,61.9,29.70,SSE,149,2.0,20.0,74,0.00,,,0.00,Weather View 32 v70,2013-04-08 19:40:00,
2013-04-08 14:50:00,70.9,61.8,29.70,SSE,153,8.0,19.0,73,0.00,,,0.00,Weather View 32 v70,2013-04-08 19:50:00,
2013-04-08 15:00:00,70.9,61.8,29.70,SSE,148,14.0,19.0,73,0.00,,,0.00,Weather View 32 v70,2013-04-08 20:00:00,
2013-04-08 15:10:00,70.9,61.8,29.69,SE,143,3.0,19.0,73,0.00,,,0.00,Weather View 32 v70,2013-04-08 20:10:00,
2013-04-08 15:20:00,71.7,61.8,29.69,SE,145,11.0,19.0,71,0.00,,,0.00,Weather View 32 v70,2013-04-08 20:20:00,
2013-04-08 15:25:00,71.9,62.0,29.69,SSE,158,1.0,19.0,71,0.00,,,0.00,Weather View 32 v70,2013-04-08 20:25:00,
2013-04-08 15:33:00,72.1,62.1,29.68,SSE,156,6.0,19.0,71,0.00,,,0.00,Weather View 32 v70,2013-04-08 20:33:00,
2013-04-08 15:40:00,72.3,61.9,29.68,SSE,160,4.0,19.0,70,0.00,,,0.00,Weather View 32 v70,2013-04-08 20:40:00,
2013-04-08 15:45:00,72.4,62.4,29.68,SSE,160,0.0,19.0,71,0.00,,,0.00,Weather View 32 v70,2013-04-08 20:45:00,
2013-04-08 15:55:00,73.0,62.2,29.67,SSE,150,9.0,19.0,69,0.00,,,0.00,Weather View 32 v70,2013-04-08 20:55:00,
2013-04-08 16:05:00,73.4,62.6,29.67,SE,146,15.0,18.0,69,0.00,,,0.00,Weather View 32 v70,2013-04-08 21:05:00,
2013-04-08 16:15:00,73.5,62.3,29.67,SE,132,9.0,19.0,68,0.00,,,0.00,Weather View 32 v70,2013-04-08 21:15:00,
2013-04-08 16:25:00,74.0,62.3,29.67,SE,145,6.0,19.0,67,0.00,,,0.00,Weather View 32 v70,2013-04-08 21:25:00,
2013-04-08 16:34:00,74.1,62.4,29.66,SE,135,13.0,21.0,67,0.00,,,0.00,Weather View 32 v70,2013-04-08 21:34:00,
2013-04-08 16:40:00,74.1,62.4,29.66,SSE,160,0.0,21.0,67,0.00,,,0.00,Weather View 32 v70,2013-04-08 21:40:00,
2013-04-08 16:45:00,74.3,62.2,29.66,SSE,157,0.0,21.0,66,0.00,,,0.00,Weather View 32 v70,2013-04-08 21:45:00,
2013-04-08 16:55:00,74.3,62.6,29.66,SSE,166,6.0,21.0,67,0.00,,,0.00,Weather View 32 v70,2013-04-08 21:55:00,
2013-04-08 17:05:00,74.2,62.5,29.66,SE,144,10.0,21.0,67,0.00,,,0.00,Weather View 32 v70,2013-04-08 22:05:00,
2013-04-08 17:10:00,74.2,62.5,29.66,SSE,163,8.0,21.0,67,0.00,,,0.00,Weather View 32 v70,2013-04-08 22:10:00,
2013-04-08 17:15:00,74.2,62.5,29.66,SSE,166,7.0,21.0,67,0.00,,,0.00,Weather View 32 v70,2013-04-08 22:15:00,
2013-04-08 17:25:00,74.3,62.2,29.66,SSE,164,3.0,21.0,66,0.00,,,0.00,Weather View 32 v70,2013-04-08 22:25:00,
2013-04-08 17:34:00,74.4,62.3,29.66,SE,145,0.0,20.0,66,0.00,,,0.00,Weather View 32 v70,2013-04-08 22:34:00,
2013-04-08 17:40:00,74.4,62.3,29.66,SSE,166,3.0,20.0,66,0.00,,,0.00,Weather View 32 v70,2013-04-08 22:40:00,
2013-04-08 17:45:00,74.5,62.4,29.66,South,187,5.0,20.0,66,0.00,,,0.00,Weather View 32 v70,2013-04-08 22:45:00,
2013-04-08 17:55:00,74.5,62.4,29.67,SSE,159,5.0,20.0,66,0.00,,,0.00,Weather View 32 v70,2013-04-08 22:55:00,
2013-04-08 18:05:00,74.4,62.3,29.67,SE,134,6.0,20.0,66,0.00,,,0.00,Weather View 32 v70,2013-04-08 23:05:00,
2013-04-08 18:10:00,74.4,62.3,29.67,South,174,18.0,20.0,66,0.00,,,0.00,Weather View 32 v70,2013-04-08 23:10:00,
2013-04-08 18:20:00,74.5,62.4,29.67,SSE,156,5.0,20.0,66,0.00,,,0.00,Weather View 32 v70,2013-04-08 23:20:00,
2013-04-08 18:30:00,74.6,62.0,29.66,South,178,9.0,18.0,65,0.00,,,0.00,Weather View 32 v70,2013-04-08 23:30:00,
2013-04-08 18:40:00,74.5,61.9,29.66,SSE,156,10.0,18.0,65,0.00,,,0.00,Weather View 32 v70,2013-04-08 23:40:00,
2013-04-08 18:50:00,74.5,61.9,29.67,SSE,152,0.0,18.0,65,0.00,,,0.00,Weather View 32 v70,2013-04-08 23:50:00,
2013-04-08 19:00:00,74.5,61.9,29.67,South,177,8.0,18.0,65,0.00,,,0.00,Weather View 32 v70,2013-04-09 00:00:00,
2013-04-08 19:10:00,74.6,62.0,29.67,South,171,0.0,18.0,65,0.00,,,0.00,Weather View 32 v70,2013-04-09 00:10:00,
2013-04-08 19:20:00,74.5,61.9,29.67,South,181,5.0,17.0,65,0.00,,,0.00,Weather View 32 v70,2013-04-09 00:20:00,
2013-04-08 19:30:00,74.4,61.8,29.67,South,170,6.0,16.0,65,0.00,,,0.00,Weather View 32 v70,2013-04-09 00:30:00,
2013-04-08 19:35:00,74.3,62.2,29.67,South,179,6.0,16.0,66,0.00,,,0.00,Weather View 32 v70,2013-04-09 00:35:00,
2013-04-08 19:40:00,74.2,62.1,29.67,SSE,156,0.0,16.0,66,0.00,,,0.00,Weather View 32 v70,2013-04-09 00:40:00,
2013-04-08 19:50:00,74.0,61.9,29.67,SE,134,2.0,17.0,66,0.00,,,0.00,Weather View 32 v70,2013-04-09 00:50:00,
2013-04-08 20:00:00,73.7,61.6,29.67,SSE,158,6.0,17.0,66,0.00,,,0.00,Weather View 32 v70,2013-04-09 01:00:00,
2013-04-08 20:10:00,73.6,61.9,29.67,SSE,166,12.0,17.0,67,0.00,,,0.00,Weather View 32 v70,2013-04-09 01:10:00,
2013-04-08 20:20:00,73.5,61.8,29.67,SSE,150,6.0,17.0,67,0.00,,,0.00,Weather View 32 v70,2013-04-09 01:20:00,
2013-04-08 20:30:00,73.1,61.5,29.67,SE,144,7.0,17.0,67,0.00,,,0.00,Weather View 32 v70,2013-04-09 01:30:00,
2013-04-08 20:36:00,73.0,61.8,29.67,SSE,154,1.0,17.0,68,0.00,,,0.00,Weather View 32 v70,2013-04-09 01:36:00,
2013-04-08 20:45:00,72.8,61.6,29.67,SE,141,2.0,17.0,68,0.00,,,0.00,Weather View 32 v70,2013-04-09 01:45:00,
2013-04-08 20:50:00,72.8,61.6,29.67,SE,129,3.0,17.0,68,0.00,,,0.00,Weather View 32 v70,2013-04-09 01:50:00,
2013-04-08 21:00:00,72.7,61.9,29.68,SE,143,4.0,16.0,69,0.00,,,0.00,Weather View 32 v70,2013-04-09 02:00:00,
2013-04-08 21:10:00,72.6,61.8,29.68,SSE,159,0.0,16.0,69,0.00,,,0.00,Weather View 32 v70,2013-04-09 02:10:00,
2013-04-08 21:20:00,72.5,61.7,29.68,SSE,168,5.0,16.0,69,0.00,,,0.00,Weather View 32 v70,2013-04-09 02:20:00,
2013-04-08 21:30:00,72.6,61.8,29.68,SE,145,2.0,16.0,69,0.00,,,0.00,Weather View 32 v70,2013-04-09 02:30:00,
2013-04-08 21:35:00,72.7,61.9,29.69,South,170,3.0,16.0,69,0.00,,,0.00,Weather View 32 v70,2013-04-09 02:35:00,
2013-04-08 21:45:00,72.8,62.0,29.69,SSE,166,3.0,16.0,69,0.00,,,0.00,Weather View 32 v70,2013-04-09 02:45:00,
2013-04-08 21:55:00,72.8,62.0,29.69,SE,139,2.0,15.0,69,0.00,,,0.00,Weather View 32 v70,2013-04-09 02:55:00,
2013-04-08 22:05:00,72.8,61.6,29.69,SE,141,3.0,15.0,68,0.00,,,0.00,Weather View 32 v70,2013-04-09 03:05:00,
2013-04-08 22:10:00,72.8,61.6,29.69,South,170,4.0,15.0,68,0.00,,,0.00,Weather View 32 v70,2013-04-09 03:10:00,
2013-04-08 22:20:00,72.8,61.6,29.69,SSE,150,0.0,15.0,68,0.00,,,0.00,Weather View 32 v70,2013-04-09 03:20:00,
2013-04-08 22:25:00,72.8,61.6,29.69,SSE,155,1.0,16.0,68,0.00,,,0.00,Weather View 32 v70,2013-04-09 03:25:00,
2013-04-08 22:35:00,72.7,61.5,29.69,SSE,149,7.0,16.0,68,0.00,,,0.00,Weather View 32 v70,2013-04-09 03:35:00,
2013-04-08 22:45:00,72.8,61.6,29.69,SSE,153,0.0,16.0,68,0.00,,,0.00,Weather View 32 v70,2013-04-09 03:45:00,
2013-04-08 22:55:00,72.7,61.5,29.69,SSE,149,0.0,16.0,68,0.00,,,0.00,Weather View 32 v70,2013-04-09 03:55:00,
2013-04-08 23:00:00,72.7,61.5,29.69,SSE,160,0.0,16.0,68,0.00,,,0.00,Weather View 32 v70,2013-04-09 04:00:00,
2013-04-08 23:05:00,72.6,61.4,29.69,SE,146,2.0,16.0,68,0.00,,,0.00,Weather View 32 v70,2013-04-09 04:05:00,
2013-04-08 23:10:00,72.7,61.5,29.69,SSE,148,0.0,16.0,68,0.00,,,0.00,Weather View 32 v70,2013-04-09 04:10:00,
2013-04-08 23:20:00,72.6,61.4,29.69,SE,141,2.0,16.0,68,0.00,,,0.00,Weather View 32 v70,2013-04-09 04:20:00,
2013-04-08 23:30:00,72.5,61.7,29.69,SE,131,5.0,13.0,69,0.00,,,0.00,Weather View 32 v70,2013-04-09 04:30:00,
2013-04-08 23:38:00,72.5,61.7,29.69,SSE,151,0.0,13.0,69,0.00,,,0.00,Weather View 32 v70,2013-04-09 04:38:00,
2013-04-08 23:45:00,72.5,61.7,29.68,SE,124,10.0,13.0,69,0.00,,,0.00,Weather View 32 v70,2013-04-09 04:45:00,
2013-04-08 23:55:00,72.5,61.7,29.68,South,169,6.0,13.0,69,0.00,,,0.00,Weather View 32 v70,2013-04-09 04:55:00,